Flag for Guadeloupe Weather past 2 weeks in Basse-Terre, Guadeloupe

Now
88 °F

Scattered clouds.


Feels Like: 94 °F
Forecast: 77 / 82 °F
Wind: 13 mph from Southeast

Location: Le Raizet - Guadeloupe

Current Time: Oct 24, 2014 at 3:04:02 PM

Latest Report: Oct 24, 2014 at 2:30 PM


Visibility: N/A

Pressure: 29.86 "Hg

Humidity: 59%

Dew point: 72 °F

Location of Basse-TerreLocation

Historic Weather in Basse-Terre — Graph

°F

Basse-Terre temperature yesterday

Maximum temperature yesterday: 86 °F (at 9:16 AM)
Minimum temperature yesterday: 75 °F (at 4:30 AM)
Average temperature yesterday: 80 °F

Past Weeks' High & Low Weather Summary

 TemperatureHumidityPressure
High90 °F (Oct 11, 12:30 PM)100% (Oct 17, 6:30 AM)30.01 "Hg (Oct 17, 6:30 AM)
Low72 °F (Oct 17, 1:00 AM)49% (Oct 15, 2:00 PM)29.74 "Hg (Oct 13, 4:00 AM)
Average80 °F78%29.90 "Hg
* Reported Oct 9 1:05 PM — Oct 24 1:30 PM, Basse-Terre, Weather by CustomWeather, © 2014

Note: Actual official high and low records may vary slightly from our data, if they occured in-between our weather recording intervals... More about our weather records

Advertising

Basse-Terre weather history for previous 24 hours

 ConditionsComfort  
Time TempWeatherWind HumidityBarometerVisibility
1:30 PM
Oct 24
88 °FScattered clouds.14 mph62%29.89 "HgN/A
1:00 PM90 °FScattered clouds.12 mph52%29.89 "HgN/A
12:30 PM88 °FScattered clouds.14 mph55%29.92 "HgN/A
12:00 PM90 °FScattered clouds.14 mph55%29.92 "HgN/A
11:30 AM88 °FScattered clouds.12 mph62%29.95 "HgN/A
11:00 AM88 °FScattered clouds.9 mph62%29.95 "HgN/A
10:30 AM88 °FScattered clouds.10 mph59%29.95 "HgN/A
10:00 AM86 °FScattered clouds.8 mph66%29.98 "HgN/A
9:30 AM84 °FScattered clouds.6 mph70%29.98 "HgN/A
9:00 AM84 °FPassing clouds.8 mph74%29.98 "HgN/A
8:30 AM84 °FPassing clouds.6 mph70%29.98 "HgN/A
8:00 AM82 °FScattered clouds.7 mph79%29.98 "HgN/A
7:30 AM79 °FScattered clouds.1 mph94%29.95 "HgN/A
6:30 AM77 °FBroken clouds.2 mph94%29.95 "HgN/A
6:00 AM75 °FBroken clouds.2 mph94%29.95 "HgN/A
5:30 AM75 °FPassing clouds.3 mph94%29.92 "HgN/A
5:00 AM75 °FPassing clouds.5 mph94%29.92 "HgN/A
4:30 AM77 °FPassing clouds.5 mph94%29.89 "Hg4 mi
4:00 AM75 °FMild.2 mph94%29.89 "HgN/A
3:30 AM75 °FMild.No wind94%29.89 "HgN/A
3:00 AM75 °FMild.No wind94%29.89 "HgN/A
2:30 AM75 °FMild.No wind94%29.92 "HgN/A
2:00 AM75 °FClear.No wind94%29.92 "HgN/A
1:30 AM75 °FClear.No wind94%29.92 "HgN/A
1:00 AM77 °FPassing clouds.No wind94%29.92 "HgN/A
12:30 AM77 °FClear.1 mph94%29.95 "HgN/A
12:00 AM77 °FClear.No wind89%29.95 "HgN/A
11:30 PM
Oct 23
77 °FClear.1 mph94%29.95 "HgN/A
11:00 PM77 °FClear.2 mph94%29.95 "HgN/A
10:30 PM77 °FWarm.2 mph89%29.95 "HgN/A
10:00 PM77 °FClear.2 mph89%29.95 "HgN/A
9:30 PM79 °FClear.No wind89%29.95 "HgN/A
9:00 PM79 °FClear.No wind89%29.95 "HgN/A
8:30 PM79 °FClear.2 mph89%29.92 "HgN/A
8:00 PM79 °FClear.3 mph89%29.92 "HgN/A
7:30 PM81 °FClear.3 mph84%29.92 "HgN/A
7:00 PM81 °FPassing clouds.3 mph79%29.89 "HgN/A
6:30 PM81 °FPassing clouds.6 mph79%29.89 "HgN/A
6:00 PM82 °FPassing clouds.6 mph74%29.89 "HgN/A
5:30 PM82 °FPassing clouds.6 mph74%29.89 "HgN/A
5:08 PM84 °FPassing clouds.9 mph70%29.89 "HgN/A
4:38 PM84 °FPassing clouds.7 mph70%29.86 "HgN/A
4:00 PM86 °FPassing clouds.8 mph66%29.86 "HgN/A
3:30 PM84 °FPassing clouds.10 mph74%29.86 "HgN/A
3:00 PM86 °FPassing clouds.9 mph66%29.86 "HgN/A
Weather by CustomWeather, © 2014

See weather overviewHow to use our weather pages